Time,TemperatureF,DewpointF,PressureIn,WindDirection,WindDirectionDegrees,WindSpeedMPH,WindSpeedGustMPH,Humidity,HourlyPrecipIn,Conditions,Clouds,dailyrainin,SoftwareType,DateUTC
2013-07-17 00:04:00,75.6,70.4,30.11,West,262,0.0,0.0,84,0.00,BKN,OVC,0.00,WeatherDisplay:10.37,2013-07-17 04:04:00,
2013-07-17 00:09:00,75.4,70.6,30.11,West,262,0.0,0.0,85,0.00,BKN,OVC,0.00,WeatherDisplay:10.37,2013-07-17 04:09:00,
2013-07-17 00:14:00,75.2,70.7,30.11,West,262,0.0,0.0,86,0.00,BKN,OVC,0.00,WeatherDisplay:10.37,2013-07-17 04:14:00,
2013-07-17 00:19:00,75.1,70.6,30.11,West,262,0.0,0.0,86,0.00,BKN,OVC,0.00,WeatherDisplay:10.37,2013-07-17 04:19:00,
2013-07-17 00:24:00,75.0,70.5,30.11,West,262,0.0,0.0,86,0.00,BKN,OVC,0.00,WeatherDisplay:10.37,2013-07-17 04:24:00,
2013-07-17 00:29:00,74.8,70.7,30.11,West,262,0.0,0.0,87,0.00,BKN,OVC,0.00,WeatherDisplay:10.37,2013-07-17 04:29:00,
2013-07-17 00:34:00,74.7,70.6,30.11,West,262,0.0,0.0,87,0.00,BKN,OVC,0.00,WeatherDisplay:10.37,2013-07-17 04:34:00,
2013-07-17 00:39:00,74.5,70.4,30.10,West,262,0.0,0.0,87,0.00,BKN,OVC,0.00,WeatherDisplay:10.37,2013-07-17 04:39:00,
2013-07-17 00:44:00,74.3,70.2,30.10,West,272,0.0,0.0,87,0.00,BKN,OVC,0.00,WeatherDisplay:10.37,2013-07-17 04:44:00,
2013-07-17 00:49:00,74.1,70.3,30.10,WNW,284,0.0,0.0,88,0.00,BKN,OVC,0.00,WeatherDisplay:10.37,2013-07-17 04:49:00,
2013-07-17 00:54:00,74.0,70.2,30.10,WNW,286,0.0,0.0,88,0.00,BKN,OVC,0.00,WeatherDisplay:10.37,2013-07-17 04:54:00,
2013-07-17 00:59:00,74.0,70.2,30.10,WNW,286,0.0,0.0,88,0.00,BKN,OVC,0.00,WeatherDisplay:10.37,2013-07-17 04:59:00,
2013-07-17 01:04:00,73.8,70.0,30.09,WNW,286,0.0,0.0,88,0.00,BKN,OVC,0.00,WeatherDisplay:10.37,2013-07-17 05:04:00,
2013-07-17 01:09:00,73.5,70.1,30.09,WNW,286,0.0,0.0,89,0.00,BKN,OVC,0.00,WeatherDisplay:10.37,2013-07-17 05:09:00,
2013-07-17 01:14:00,73.3,69.9,30.09,WNW,286,0.0,0.0,89,0.00,BKN,OVC,0.00,WeatherDisplay:10.37,2013-07-17 05:14:00,
2013-07-17 01:19:00,73.3,69.9,30.09,WNW,286,0.0,0.0,89,0.00,BKN,OVC,0.00,WeatherDisplay:10.37,2013-07-17 05:19:00,
2013-07-17 01:24:00,73.2,69.8,30.09,WNW,286,0.0,0.0,89,0.00,SCT,OVC,0.00,WeatherDisplay:10.37,2013-07-17 05:24:00,
2013-07-17 01:29:00,73.2,69.8,30.09,WNW,286,0.0,0.0,89,0.00,SCT,OVC,0.00,WeatherDisplay:10.37,2013-07-17 05:29:00,
2013-07-17 01:34:00,73.2,70.1,30.09,WNW,286,0.0,0.0,90,0.00,SCT,OVC,0.00,WeatherDisplay:10.37,2013-07-17 05:34:00,
2013-07-17 01:39:00,73.2,69.7,30.09,WNW,286,0.0,0.0,89,0.00,SCT,OVC,0.00,WeatherDisplay:10.37,2013-07-17 05:39:00,
2013-07-17 01:44:00,73.3,69.8,30.09,WNW,286,0.0,0.0,89,0.00,SCT,OVC,0.00,WeatherDisplay:10.37,2013-07-17 05:44:00,
2013-07-17 01:49:00,73.4,70.0,30.09,WNW,286,0.0,0.0,89,0.00,SCT,OVC,0.00,WeatherDisplay:10.37,2013-07-17 05:49:00,
2013-07-17 01:54:00,73.4,69.6,30.08,WNW,286,0.0,0.0,88,0.00,SCT,OVC,0.00,WeatherDisplay:10.37,2013-07-17 05:54:00,
2013-07-17 01:59:00,73.5,69.7,30.08,WNW,286,0.0,0.0,88,0.00,SCT,OVC,0.00,WeatherDisplay:10.37,2013-07-17 05:59:00,
2013-07-17 02:04:00,73.4,69.9,30.08,WNW,286,0.0,0.0,89,0.00,SCT,OVC,0.00,WeatherDisplay:10.37,2013-07-17 06:04:00,
2013-07-17 02:09:00,73.1,69.7,30.08,WNW,286,0.0,0.0,89,0.00,SCT,OVC,0.00,WeatherDisplay:10.37,2013-07-17 06:09:00,
2013-07-17 02:14:00,72.9,69.5,30.08,WNW,286,0.0,0.0,89,0.00,FEW,OVC,0.00,WeatherDisplay:10.37,2013-07-17 06:14:00,
2013-07-17 02:19:00,72.8,69.4,30.08,WNW,286,0.0,0.0,89,0.00,FEW,OVC,0.00,WeatherDisplay:10.37,2013-07-17 06:19:00,
2013-07-17 02:24:00,72.8,69.4,30.08,WNW,286,0.0,0.0,89,0.00,FEW,OVC,0.00,WeatherDisplay:10.37,2013-07-17 06:24:00,
2013-07-17 02:29:00,72.7,69.6,30.08,WNW,286,0.0,0.0,90,0.00,FEW,OVC,0.00,WeatherDisplay:10.37,2013-07-17 06:29:00,
2013-07-17 02:34:00,72.4,69.3,30.08,WNW,286,0.0,0.0,90,0.00,FEW,OVC,0.00,WeatherDisplay:10.37,2013-07-17 06:34:00,
2013-07-17 02:39:00,72.1,69.3,30.08,WNW,286,0.0,0.0,91,0.00,FEW,OVC,0.00,WeatherDisplay:10.37,2013-07-17 06:39:00,
2013-07-17 02:44:00,72.0,69.2,30.08,WNW,286,0.0,0.0,91,0.00,FEW,OVC,0.00,WeatherDisplay:10.37,2013-07-17 06:44:00,
2013-07-17 02:49:00,71.8,69.0,30.08,WNW,286,0.0,0.0,91,0.00,FEW,OVC,0.00,WeatherDisplay:10.37,2013-07-17 06:49:00,
2013-07-17 02:54:00,71.7,68.9,30.07,WNW,286,0.0,0.0,91,0.00,FEW,OVC,0.00,WeatherDisplay:10.37,2013-07-17 06:54:00,
2013-07-17 02:59:00,71.4,69.0,30.08,WNW,286,0.0,0.0,92,0.00,FEW,OVC,0.00,WeatherDisplay:10.37,2013-07-17 06:59:00,
2013-07-17 03:04:00,71.3,68.9,30.08,WNW,286,0.0,0.0,92,0.00,FEW,OVC,0.00,WeatherDisplay:10.37,2013-07-17 07:04:00,
2013-07-17 03:09:00,71.3,69.2,30.08,WNW,286,0.0,0.0,93,0.00,FEW,OVC,0.00,WeatherDisplay:10.37,2013-07-17 07:09:00,
2013-07-17 03:14:00,71.6,69.5,30.08,WNW,286,0.0,1.0,93,0.00,FEW,OVC,0.00,WeatherDisplay:10.37,2013-07-17 07:14:00,
2013-07-17 03:19:00,72.1,69.6,30.08,West,276,0.0,3.0,92,0.00,FEW,OVC,0.00,WeatherDisplay:10.37,2013-07-17 07:19:00,
2013-07-17 03:24:00,72.6,69.8,30.08,WNW,283,0.0,2.0,91,0.00,FEW,OVC,0.00,WeatherDisplay:10.37,2013-07-17 07:24:00,
2013-07-17 03:29:00,72.9,69.8,30.08,West,276,0.0,0.0,90,0.00,FEW,OVC,0.00,WeatherDisplay:10.37,2013-07-17 07:29:00,
2013-07-17 03:34:00,72.7,69.6,30.07,West,262,0.0,1.0,90,0.00,FEW,OVC,0.00,WeatherDisplay:10.37,2013-07-17 07:34:00,
2013-07-17 03:39:00,72.6,69.5,30.08,West,281,0.0,0.0,90,0.00,FEW,OVC,0.00,WeatherDisplay:10.37,2013-07-17 07:39:00,
2013-07-17 03:44:00,72.3,69.2,30.08,WNW,289,0.0,0.0,90,0.00,FEW,OVC,0.00,WeatherDisplay:10.37,2013-07-17 07:44:00,
2013-07-17 03:49:00,71.9,69.1,30.08,WNW,289,0.0,0.0,91,0.00,FEW,OVC,0.00,WeatherDisplay:10.37,2013-07-17 07:49:00,
2013-07-17 03:54:00,71.4,68.7,30.07,WNW,289,0.0,0.0,91,0.00,FEW,OVC,0.00,WeatherDisplay:10.37,2013-07-17 07:54:00,
2013-07-17 03:59:00,71.2,68.8,30.08,WNW,289,0.0,0.0,92,0.00,FEW,OVC,0.00,WeatherDisplay:10.37,2013-07-17 07:59:00,
2013-07-17 04:04:00,71.0,68.6,30.07,WNW,289,0.0,0.0,92,0.00,FEW,OVC,0.00,WeatherDisplay:10.37,2013-07-17 08:04:00,
2013-07-17 04:09:00,70.7,68.6,30.07,WNW,289,0.0,0.0,93,0.00,FEW,OVC,0.00,WeatherDisplay:10.37,2013-07-17 08:09:00,
2013-07-17 04:14:00,70.6,68.5,30.08,WNW,289,0.0,0.0,93,0.00,SCT,OVC,0.00,WeatherDisplay:10.37,2013-07-17 08:14:00,
2013-07-17 04:19:00,70.6,68.8,30.07,WNW,289,0.0,0.0,94,0.00,SCT,OVC,0.00,WeatherDisplay:10.37,2013-07-17 08:19:00,
2013-07-17 04:24:00,70.8,69.0,30.07,WNW,289,0.0,1.0,94,0.00,SCT,OVC,0.00,WeatherDisplay:10.37,2013-07-17 08:24:00,
2013-07-17 04:29:00,71.0,69.2,30.07,WNW,289,0.0,0.0,94,0.00,SCT,OVC,0.00,WeatherDisplay:10.37,2013-07-17 08:29:00,
2013-07-17 04:34:00,71.3,69.5,30.07,WNW,289,0.0,0.0,94,0.00,SCT,OVC,0.00,WeatherDisplay:10.37,2013-07-17 08:34:00,
2013-07-17 04:39:00,71.5,69.7,30.07,WNW,285,0.0,0.0,94,0.00,SCT,OVC,0.00,WeatherDisplay:10.37,2013-07-17 08:39:00,
2013-07-17 04:44:00,71.7,69.9,30.07,West,281,0.0,0.0,94,0.00,SCT,OVC,0.00,WeatherDisplay:10.37,2013-07-17 08:44:00,
2013-07-17 04:49:00,72.0,69.9,30.06,West,281,0.0,0.0,93,0.00,SCT,OVC,0.00,WeatherDisplay:10.37,2013-07-17 08:49:00,
2013-07-17 04:54:00,72.1,70.0,30.06,West,281,0.0,0.0,93,0.00,SCT,OVC,0.00,WeatherDisplay:10.37,2013-07-17 08:54:00,
2013-07-17 04:59:00,72.2,70.1,30.06,West,281,0.0,0.0,93,0.00,SCT,OVC,0.00,WeatherDisplay:10.37,2013-07-17 08:59:00,
2013-07-17 05:04:00,72.3,69.8,30.06,WNW,282,0.0,1.0,92,0.00,SCT,OVC,0.00,WeatherDisplay:10.37,2013-07-17 09:04:00,
2013-07-17 05:09:00,72.4,69.9,30.07,West,281,0.0,2.0,92,0.00,SCT,OVC,0.00,WeatherDisplay:10.37,2013-07-17 09:09:00,
2013-07-17 05:14:00,72.4,69.9,30.07,WSW,249,0.0,0.0,92,0.00,BKN,OVC,0.00,WeatherDisplay:10.37,2013-07-17 09:14:00,
2013-07-17 05:19:00,72.3,69.9,30.06,WSW,242,0.0,2.0,92,0.00,BKN,OVC,0.00,WeatherDisplay:10.37,2013-07-17 09:19:00,
2013-07-17 05:24:00,72.4,70.3,30.06,SW,236,0.0,2.0,93,0.00,BKN,OVC,0.00,WeatherDisplay:10.37,2013-07-17 09:24:00,
2013-07-17 05:29:00,72.5,70.0,30.06,WSW,250,0.0,2.0,92,0.00,BKN,OVC,0.00,WeatherDisplay:10.37,2013-07-17 09:29:00,
2013-07-17 05:34:00,72.6,70.1,30.06,West,263,0.0,2.0,92,0.00,BKN,OVC,0.00,WeatherDisplay:10.37,2013-07-17 09:34:00,
2013-07-17 05:39:00,72.5,70.1,30.07,West,260,0.0,1.0,92,0.00,BKN,OVC,0.00,WeatherDisplay:10.37,2013-07-17 09:39:00,
2013-07-17 05:44:00,72.5,70.0,30.07,WSW,253,0.0,1.0,92,0.00,BKN,OVC,0.00,WeatherDisplay:10.37,2013-07-17 09:44:00,
2013-07-17 05:49:00,72.4,70.3,30.07,WSW,242,0.0,0.0,93,0.00,BKN,OVC,0.00,WeatherDisplay:10.37,2013-07-17 09:49:00,
2013-07-17 05:54:00,72.3,70.2,30.07,WSW,237,0.0,2.0,93,0.00,BKN,OVC,0.00,WeatherDisplay:10.37,2013-07-17 09:54:00,
2013-07-17 05:59:00,72.2,70.1,30.07,WSW,237,0.0,1.0,93,0.00,BKN,OVC,0.00,WeatherDisplay:10.37,2013-07-17 09:59:00,
2013-07-17 06:04:00,72.1,70.0,30.07,WSW,238,0.0,1.0,93,0.00,BKN,OVC,0.00,WeatherDisplay:10.37,2013-07-17 10:04:00,
2013-07-17 06:09:00,72.1,70.0,30.07,West,262,0.0,2.0,93,0.00,BKN,OVC,0.00,WeatherDisplay:10.37,2013-07-17 10:09:00,
2013-07-17 06:14:00,72.1,70.3,30.07,West,262,0.0,0.0,94,0.00,BKN,OVC,0.00,WeatherDisplay:10.37,2013-07-17 10:14:00,
2013-07-17 06:19:00,72.2,70.3,30.07,WSW,256,0.0,1.0,94,0.00,BKN,OVC,0.00,WeatherDisplay:10.37,2013-07-17 10:19:00,
2013-07-17 06:24:00,72.3,70.5,30.07,WSW,243,0.0,1.0,94,0.00,BKN,OVC,0.00,WeatherDisplay:10.37,2013-07-17 10:24:00,
2013-07-17 06:29:00,72.5,70.4,30.07,WSW,246,0.0,3.0,93,0.00,BKN,OVC,0.00,WeatherDisplay:10.37,2013-07-17 10:29:00,
2013-07-17 06:34:00,72.6,70.5,30.07,West,259,0.0,3.0,93,0.00,BKN,OVC,0.00,WeatherDisplay:10.37,2013-07-17 10:34:00,
2013-07-17 06:39:00,72.8,70.7,30.07,West,266,0.0,2.0,93,0.00,BKN,OVC,0.00,WeatherDisplay:10.37,2013-07-17 10:39:00,
2013-07-17 06:44:00,73.0,70.5,30.08,WSW,256,0.0,2.0,92,0.00,BKN,OVC,0.00,WeatherDisplay:10.37,2013-07-17 10:44:00,
2013-07-17 06:49:00,73.3,70.8,30.08,WSW,243,0.0,3.0,92,0.00,BKN,OVC,0.00,WeatherDisplay:10.37,2013-07-17 10:49:00,
2013-07-17 06:54:00,73.5,70.7,30.07,WSW,239,1.0,5.0,91,0.00,BKN,OVC,0.00,WeatherDisplay:10.37,2013-07-17 10:54:00,
2013-07-17 06:59:00,73.8,71.0,30.07,WSW,241,0.0,2.0,91,0.00,BKN,OVC,0.00,WeatherDisplay:10.37,2013-07-17 10:59:00,
2013-07-17 07:04:00,74.1,71.0,30.07,SW,234,1.0,6.0,90,0.00,BKN,OVC,0.00,WeatherDisplay:10.37,2013-07-17 11:04:00,
2013-07-17 07:09:00,74.2,71.1,30.07,WSW,248,1.0,4.0,90,0.00,BKN,OVC,0.00,WeatherDisplay:10.37,2013-07-17 11:09:00,
2013-07-17 07:14:00,74.2,71.1,30.07,WSW,247,0.0,4.0,90,0.00,BKN,OVC,0.00,WeatherDisplay:10.37,2013-07-17 11:14:00,
2013-07-17 07:19:00,74.4,71.3,30.07,WSW,246,0.0,3.0,90,0.00,BKN,OVC,0.00,WeatherDisplay:10.37,2013-07-17 11:19:00,
2013-07-17 07:24:00,74.7,71.2,30.07,SW,221,1.0,4.0,89,0.00,BKN,OVC,0.00,WeatherDisplay:10.37,2013-07-17 11:24:00,
2013-07-17 07:29:00,74.9,71.4,30.07,SW,222,0.0,3.0,89,0.00,BKN,OVC,0.00,WeatherDisplay:10.37,2013-07-17 11:29:00,
2013-07-17 07:34:00,74.9,71.5,30.07,SW,235,0.0,5.0,89,0.00,BKN,OVC,0.00,WeatherDisplay:10.37,2013-07-17 11:34:00,
2013-07-17 07:39:00,75.2,71.4,30.07,WSW,237,1.0,6.0,88,0.00,BKN,OVC,0.00,WeatherDisplay:10.37,2013-07-17 11:39:00,
2013-07-17 07:44:00,75.2,71.7,30.07,WSW,250,0.0,4.0,89,0.00,BKN,OVC,0.00,WeatherDisplay:10.37,2013-07-17 11:44:00,
2013-07-17 07:49:00,75.1,71.3,30.07,West,264,1.0,5.0,88,0.00,BKN,OVC,0.00,WeatherDisplay:10.37,2013-07-17 11:49:00,
2013-07-17 07:54:00,75.4,71.9,30.06,WSW,244,0.0,2.0,89,0.00,BKN,OVC,0.00,WeatherDisplay:10.37,2013-07-17 11:54:00,
2013-07-17 07:59:00,76.1,71.9,30.06,SW,229,1.0,7.0,87,0.00,BKN,OVC,0.00,WeatherDisplay:10.37,2013-07-17 11:59:00,
2013-07-17 08:04:00,76.8,72.3,30.06,SW,222,1.0,5.0,86,0.00,BKN,OVC,0.00,WeatherDisplay:10.37,2013-07-17 12:04:00,
2013-07-17 08:09:00,77.6,72.4,30.06,SW,236,1.0,4.0,84,0.00,BKN,OVC,0.00,WeatherDisplay:10.37,2013-07-17 12:09:00,
2013-07-17 08:14:00,78.4,73.1,30.06,SW,236,0.0,3.0,84,0.00,BKN,OVC,0.00,WeatherDisplay:10.37,2013-07-17 12:14:00,
2013-07-17 08:19:00,78.9,73.0,30.06,WSW,254,2.0,5.0,82,0.00,BKN,OVC,0.00,WeatherDisplay:10.37,2013-07-17 12:19:00,
2013-07-17 08:24:00,79.5,73.2,30.06,WSW,254,0.0,6.0,81,0.00,BKN,OVC,0.00,WeatherDisplay:10.37,2013-07-17 12:24:00,
2013-07-17 08:29:00,79.9,73.2,30.06,WSW,240,1.0,5.0,80,0.00,BKN,OVC,0.00,WeatherDisplay:10.37,2013-07-17 12:29:00,
2013-07-17 08:34:00,80.3,72.8,30.06,SW,234,2.0,7.0,78,0.00,BKN,OVC,0.00,WeatherDisplay:10.37,2013-07-17 12:34:00,
2013-07-17 08:39:00,80.5,73.4,30.06,West,279,1.0,7.0,79,0.00,BKN,OVC,0.00,WeatherDisplay:10.37,2013-07-17 12:39:00,
2013-07-17 08:44:00,80.9,73.8,30.06,West,267,1.0,4.0,79,0.00,BKN,OVC,0.00,WeatherDisplay:10.37,2013-07-17 12:44:00,
2013-07-17 08:49:00,81.3,73.8,30.06,WSW,254,1.0,5.0,78,0.00,BKN,OVC,0.00,WeatherDisplay:10.37,2013-07-17 12:49:00,
2013-07-17 08:54:00,81.7,74.1,30.06,SW,236,0.0,8.0,78,0.00,BKN,OVC,0.00,WeatherDisplay:10.37,2013-07-17 12:54:00,
2013-07-17 08:59:00,82.0,73.7,30.06,SW,223,0.0,6.0,76,0.00,BKN,OVC,0.00,WeatherDisplay:10.37,2013-07-17 12:59:00,
2013-07-17 09:04:00,82.6,74.3,30.06,West,272,1.0,4.0,76,0.00,BKN,OVC,0.00,WeatherDisplay:10.37,2013-07-17 13:04:00,
2013-07-17 09:09:00,83.6,74.9,30.06,WNW,298,0.0,2.0,75,0.00,BKN,OVC,0.00,WeatherDisplay:10.37,2013-07-17 13:09:00,
2013-07-17 09:14:00,83.8,72.5,30.05,West,261,2.0,7.0,69,0.00,FEW,OVC,0.00,WeatherDisplay:10.37,2013-07-17 13:14:00,
2013-07-17 09:19:00,83.8,72.9,30.05,WNW,295,2.0,8.0,70,0.00,FEW,OVC,0.00,WeatherDisplay:10.37,2013-07-17 13:19:00,
2013-07-17 09:24:00,84.1,72.8,30.05,WNW,291,1.0,9.0,69,0.00,FEW,OVC,0.00,WeatherDisplay:10.37,2013-07-17 13:24:00,
2013-07-17 09:29:00,84.4,72.7,30.05,WNW,288,1.0,5.0,68,0.00,FEW,OVC,0.00,WeatherDisplay:10.37,2013-07-17 13:29:00,
2013-07-17 09:34:00,84.3,72.2,30.05,WNW,291,5.0,8.0,67,0.00,FEW,OVC,0.00,WeatherDisplay:10.37,2013-07-17 13:34:00,
2013-07-17 09:39:00,84.4,72.7,30.05,WNW,297,1.0,7.0,68,0.00,FEW,OVC,0.00,WeatherDisplay:10.37,2013-07-17 13:39:00,
2013-07-17 09:44:00,85.1,72.9,30.05,West,271,2.0,7.0,67,0.00,FEW,OVC,0.00,WeatherDisplay:10.37,2013-07-17 13:44:00,
2013-07-17 09:49:00,85.5,72.8,30.05,WSW,253,1.0,6.0,66,0.00,FEW,OVC,0.00,WeatherDisplay:10.37,2013-07-17 13:49:00,
2013-07-17 09:54:00,85.7,73.5,30.05,WSW,251,1.0,7.0,67,0.00,FEW,OVC,0.00,WeatherDisplay:10.37,2013-07-17 13:54:00,
2013-07-17 09:59:00,85.7,73.5,30.05,SW,222,3.0,8.0,67,0.00,FEW,OVC,0.00,WeatherDisplay:10.37,2013-07-17 13:59:00,
2013-07-17 10:04:00,86.6,73.9,30.04,West,261,0.0,6.0,66,0.00,FEW,OVC,0.00,WeatherDisplay:10.37,2013-07-17 14:04:00,
2013-07-17 10:09:00,86.8,73.6,30.04,West,277,1.0,9.0,65,0.00,FEW,OVC,0.00,WeatherDisplay:10.37,2013-07-17 14:09:00,
2013-07-17 10:14:00,87.1,73.4,30.04,WSW,248,1.0,6.0,64,0.00,FEW,OVC,0.00,WeatherDisplay:10.37,2013-07-17 14:14:00,
2013-07-17 10:19:00,86.8,72.7,30.04,SSW,209,1.0,7.0,63,0.00,FEW,OVC,0.00,WeatherDisplay:10.37,2013-07-17 14:19:00,
2013-07-17 10:24:00,86.8,72.7,30.04,SW,215,3.0,6.0,63,0.00,FEW,OVC,0.00,WeatherDisplay:10.37,2013-07-17 14:24:00,
2013-07-17 10:29:00,86.5,72.9,30.04,West,272,3.0,8.0,64,0.00,FEW,OVC,0.00,WeatherDisplay:10.37,2013-07-17 14:29:00,
2013-07-17 10:34:00,87.0,72.8,30.04,WSW,258,1.0,3.0,63,0.00,FEW,OVC,0.00,WeatherDisplay:10.37,2013-07-17 14:34:00,
2013-07-17 10:39:00,87.5,72.8,30.04,SW,234,0.0,4.0,62,0.00,FEW,OVC,0.00,WeatherDisplay:10.37,2013-07-17 14:39:00,
2013-07-17 10:44:00,86.9,74.6,30.04,SSW,212,1.0,6.0,67,0.00,FEW,OVC,0.00,WeatherDisplay:10.37,2013-07-17 14:44:00,
2013-07-17 10:49:00,87.4,75.6,30.04,South,187,1.0,7.0,68,0.00,FEW,OVC,0.00,WeatherDisplay:10.37,2013-07-17 14:49:00,
2013-07-17 10:54:00,87.6,76.1,30.04,SSW,197,0.0,6.0,69,0.00,FEW,OVC,0.00,WeatherDisplay:10.37,2013-07-17 14:54:00,
2013-07-17 10:59:00,87.8,75.9,30.04,South,178,1.0,6.0,68,0.00,FEW,OVC,0.00,WeatherDisplay:10.37,2013-07-17 14:59:00,
2013-07-17 11:04:00,88.3,76.4,30.03,SSE,154,0.0,2.0,68,0.00,FEW,OVC,0.00,WeatherDisplay:10.37,2013-07-17 15:04:00,
2013-07-17 11:09:00,88.5,76.2,30.03,SE,145,0.0,6.0,67,0.00,FEW,OVC,0.00,WeatherDisplay:10.37,2013-07-17 15:09:00,
2013-07-17 11:14:00,88.4,76.0,30.03,SE,142,0.0,9.0,67,0.00,FEW,OVC,0.00,WeatherDisplay:10.37,2013-07-17 15:14:00,
2013-07-17 11:19:00,88.2,75.8,30.03,SW,225,1.0,8.0,67,0.00,FEW,OVC,0.00,WeatherDisplay:10.37,2013-07-17 15:19:00,
2013-07-17 11:29:00,88.2,75.9,30.03,WSW,239,0.0,5.0,67,0.00,FEW,OVC,0.00,WeatherDisplay:10.37,2013-07-17 15:29:00,
2013-07-17 11:34:00,88.3,76.0,30.03,SSW,198,0.0,5.0,67,0.00,FEW,OVC,0.00,WeatherDisplay:10.37,2013-07-17 15:34:00,
2013-07-17 11:39:00,87.4,74.6,30.03,WSW,248,2.0,12.0,66,0.00,FEW,OVC,0.00,WeatherDisplay:10.37,2013-07-17 15:39:00,
2013-07-17 11:44:00,87.4,75.1,30.03,WSW,258,1.0,7.0,67,0.00,FEW,OVC,0.00,WeatherDisplay:10.37,2013-07-17 15:44:00,
2013-07-17 11:49:00,88.7,75.9,30.03,SSW,213,0.0,4.0,66,0.00,FEW,OVC,0.00,WeatherDisplay:10.37,2013-07-17 15:49:00,
2013-07-17 11:54:00,88.4,75.1,30.03,WSW,246,2.0,8.0,65,0.00,FEW,OVC,0.00,WeatherDisplay:10.37,2013-07-17 15:54:00,
2013-07-17 11:59:00,89.1,76.2,30.02,SW,230,0.0,7.0,66,0.00,FEW,OVC,0.00,WeatherDisplay:10.37,2013-07-17 15:59:00,
2013-07-17 12:04:00,89.3,76.0,30.02,NW,326,1.0,9.0,65,0.00,FEW,OVC,0.00,WeatherDisplay:10.37,2013-07-17 16:04:00,
2013-07-17 12:09:00,88.8,75.9,30.02,WSW,258,3.0,8.0,66,0.00,FEW,OVC,0.00,WeatherDisplay:10.37,2013-07-17 16:09:00,
2013-07-17 12:14:00,89.3,76.0,30.02,SW,236,3.0,10.0,65,0.00,SCT,OVC,0.00,WeatherDisplay:10.37,2013-07-17 16:14:00,
2013-07-17 12:19:00,89.6,76.2,30.02,ENE,66,1.0,6.0,65,0.00,SCT,OVC,0.00,WeatherDisplay:10.37,2013-07-17 16:19:00,
2013-07-17 12:24:00,89.4,75.6,30.02,SSE,152,2.0,8.0,64,0.00,SCT,OVC,0.00,WeatherDisplay:10.37,2013-07-17 16:24:00,
2013-07-17 12:29:00,89.7,75.9,30.02,WSW,249,3.0,10.0,64,0.00,SCT,OVC,0.00,WeatherDisplay:10.37,2013-07-17 16:29:00,
2013-07-17 12:34:00,89.8,75.5,30.01,SSW,198,1.0,9.0,63,0.00,SCT,OVC,0.00,WeatherDisplay:10.37,2013-07-17 16:34:00,
2013-07-17 12:39:00,90.8,76.0,30.01,SW,221,2.0,12.0,62,0.00,SCT,OVC,0.00,WeatherDisplay:10.37,2013-07-17 16:39:00,
2013-07-17 12:44:00,90.5,77.1,30.01,SW,225,0.0,8.0,65,0.00,SCT,OVC,0.00,WeatherDisplay:10.37,2013-07-17 16:44:00,
2013-07-17 12:49:00,90.5,75.7,30.01,SW,235,2.0,8.0,62,0.00,SCT,OVC,0.00,WeatherDisplay:10.37,2013-07-17 16:49:00,
2013-07-17 12:54:00,90.1,75.3,30.01,WSW,242,5.0,12.0,62,0.00,SCT,OVC,0.00,WeatherDisplay:10.37,2013-07-17 16:54:00,
2013-07-17 12:59:00,90.8,76.9,30.01,SW,234,1.0,10.0,64,0.00,SCT,OVC,0.00,WeatherDisplay:10.37,2013-07-17 16:59:00,
2013-07-17 13:04:00,90.4,76.1,30.01,SSW,197,1.0,7.0,63,0.00,SCT,OVC,0.00,WeatherDisplay:10.37,2013-07-17 17:04:00,
2013-07-17 13:09:00,90.3,75.0,30.00,SW,224,2.0,6.0,61,0.00,SCT,OVC,0.00,WeatherDisplay:10.37,2013-07-17 17:09:00,
2013-07-17 13:14:00,90.5,75.2,30.00,West,267,2.0,7.0,61,0.00,SCT,OVC,0.00,WeatherDisplay:10.37,2013-07-17 17:14:00,
2013-07-17 13:19:00,90.5,74.7,30.00,WSW,254,3.0,10.0,60,0.00,SCT,OVC,0.00,WeatherDisplay:10.37,2013-07-17 17:19:00,
2013-07-17 13:24:00,91.5,75.7,30.00,WSW,238,5.0,8.0,60,0.00,SCT,OVC,0.00,WeatherDisplay:10.37,2013-07-17 17:24:00,
2013-07-17 13:29:00,91.4,74.5,29.99,West,275,2.0,7.0,58,0.00,SCT,OVC,0.00,WeatherDisplay:10.37,2013-07-17 17:29:00,
2013-07-17 13:34:00,89.8,75.1,29.99,WNW,291,0.0,8.0,62,0.00,SCT,OVC,0.00,WeatherDisplay:10.37,2013-07-17 17:34:00,
2013-07-17 13:39:00,90.8,75.0,29.98,SW,229,2.0,10.0,60,0.00,SCT,OVC,0.00,WeatherDisplay:10.37,2013-07-17 17:39:00,
2013-07-17 13:44:00,91.7,75.3,29.98,SW,220,1.0,11.0,59,0.00,SCT,OVC,0.00,WeatherDisplay:10.37,2013-07-17 17:44:00,
2013-07-17 13:49:00,92.3,76.4,29.98,WSW,240,1.0,8.0,60,0.00,SCT,OVC,0.00,WeatherDisplay:10.37,2013-07-17 17:49:00,
2013-07-17 13:54:00,91.7,74.8,29.98,WSW,239,1.0,12.0,58,0.00,SCT,OVC,0.00,WeatherDisplay:10.37,2013-07-17 17:54:00,
2013-07-17 13:59:00,91.2,75.3,29.97,WSW,246,5.0,13.0,60,0.00,SCT,OVC,0.00,WeatherDisplay:10.37,2013-07-17 17:59:00,
2013-07-17 14:04:00,91.6,75.2,29.97,NW,318,2.0,9.0,59,0.00,SCT,OVC,0.00,WeatherDisplay:10.37,2013-07-17 18:04:00,
2013-07-17 14:09:00,92.5,74.5,29.97,WNW,284,5.0,9.0,56,0.00,SCT,OVC,0.00,WeatherDisplay:10.37,2013-07-17 18:09:00,
2013-07-17 14:14:00,92.6,75.1,29.96,WSW,258,2.0,8.0,57,0.00,SCT,OVC,0.00,WeatherDisplay:10.37,2013-07-17 18:14:00,
2013-07-17 14:19:00,93.0,76.0,29.96,West,260,2.0,8.0,58,0.00,SCT,OVC,0.00,WeatherDisplay:10.37,2013-07-17 18:19:00,
2013-07-17 14:24:00,92.3,75.3,29.96,WSW,241,1.0,12.0,58,0.00,SCT,OVC,0.00,WeatherDisplay:10.37,2013-07-17 18:24:00,
2013-07-17 14:29:00,92.6,74.6,29.95,SSW,200,3.0,12.0,56,0.00,SCT,OVC,0.00,WeatherDisplay:10.37,2013-07-17 18:29:00,
2013-07-17 14:34:00,92.5,74.0,29.94,SW,230,3.0,7.0,55,0.00,SCT,OVC,0.00,WeatherDisplay:10.37,2013-07-17 18:34:00,
2013-07-17 14:39:00,92.8,74.3,29.94,West,260,2.0,10.0,55,0.00,SCT,OVC,0.00,WeatherDisplay:10.37,2013-07-17 18:39:00,
2013-07-17 14:44:00,92.7,73.6,29.93,West,260,6.0,10.0,54,0.00,SCT,OVC,0.00,WeatherDisplay:10.37,2013-07-17 18:44:00,
2013-07-17 14:49:00,92.5,74.5,29.93,West,266,1.0,14.0,56,0.00,SCT,OVC,0.00,WeatherDisplay:10.37,2013-07-17 18:49:00,
2013-07-17 14:54:00,91.4,74.6,29.94,West,261,1.0,7.0,58,0.00,SCT,OVC,0.00,WeatherDisplay:10.37,2013-07-17 18:54:00,
2013-07-17 14:59:00,92.3,74.9,29.93,WSW,238,3.0,10.0,57,0.00,SCT,OVC,0.00,WeatherDisplay:10.37,2013-07-17 18:59:00,
2013-07-17 15:04:00,92.6,74.6,29.94,SSW,212,2.0,12.0,56,0.00,SCT,OVC,0.00,WeatherDisplay:10.37,2013-07-17 19:04:00,
2013-07-17 15:09:00,92.9,73.8,29.93,WSW,238,1.0,12.0,54,0.00,SCT,OVC,0.00,WeatherDisplay:10.37,2013-07-17 19:09:00,
2013-07-17 15:14:00,92.6,73.5,29.93,NNW,329,0.0,7.0,54,0.00,BKN,OVC,0.00,WeatherDisplay:10.37,2013-07-17 19:14:00,
2013-07-17 15:19:00,91.8,72.8,29.93,West,269,6.0,10.0,54,0.00,BKN,OVC,0.00,WeatherDisplay:10.37,2013-07-17 19:19:00,
2013-07-17 15:24:00,90.2,73.9,29.93,SW,232,2.0,7.0,59,0.00,BKN,OVC,0.00,WeatherDisplay:10.37,2013-07-17 19:24:00,
2013-07-17 15:29:00,89.2,74.0,29.92,SW,230,2.0,9.0,61,0.00,BKN,OVC,0.00,WeatherDisplay:10.37,2013-07-17 19:29:00,
2013-07-17 15:34:00,88.6,73.9,29.92,SW,224,2.0,6.0,62,0.00,BKN,OVC,0.00,WeatherDisplay:10.37,2013-07-17 19:34:00,
2013-07-17 15:39:00,88.1,73.5,29.92,SSW,207,1.0,7.0,62,0.00,BKN,OVC,0.00,WeatherDisplay:10.37,2013-07-17 19:39:00,
2013-07-17 15:44:00,87.7,73.1,29.92,SW,230,1.0,12.0,62,0.00,BKN,OVC,0.00,WeatherDisplay:10.37,2013-07-17 19:44:00,
2013-07-17 15:49:00,87.4,72.7,29.93,West,267,5.0,8.0,62,0.00,BKN,OVC,0.00,WeatherDisplay:10.37,2013-07-17 19:49:00,
2013-07-17 15:59:00,86.6,73.5,29.94,WNW,288,1.0,7.0,65,0.00,BKN,OVC,0.00,WeatherDisplay:10.37,2013-07-17 19:59:00,
2013-07-17 16:04:00,86.5,74.2,29.93,West,274,1.0,7.0,67,0.00,BKN,OVC,0.00,WeatherDisplay:10.37,2013-07-17 20:04:00,
2013-07-17 16:09:00,86.3,74.5,29.92,WNW,294,0.0,4.0,68,0.00,BKN,OVC,0.00,WeatherDisplay:10.37,2013-07-17 20:09:00,
2013-07-17 16:19:00,86.2,74.8,29.93,West,275,0.0,5.0,69,0.00,OVC,OVC,0.00,WeatherDisplay:10.37,2013-07-17 20:19:00,
2013-07-17 16:24:00,86.2,75.3,29.92,WNW,284,2.0,5.0,70,0.00,OVC,OVC,0.00,WeatherDisplay:10.37,2013-07-17 20:24:00,
2013-07-17 16:29:00,86.3,74.9,29.91,WNW,299,1.0,4.0,69,0.00,OVC,OVC,0.00,WeatherDisplay:10.37,2013-07-17 20:29:00,
2013-07-17 16:34:00,86.3,75.4,29.91,WNW,301,1.0,4.0,70,0.00,OVC,OVC,0.00,WeatherDisplay:10.37,2013-07-17 20:34:00,
2013-07-17 16:39:00,86.2,75.6,29.92,WNW,287,1.0,7.0,71,0.00,OVC,OVC,0.00,WeatherDisplay:10.37,2013-07-17 20:39:00,
2013-07-17 16:44:00,85.5,75.0,29.92,West,280,2.0,12.0,71,0.00,OVC,OVC,0.00,WeatherDisplay:10.37,2013-07-17 20:44:00,
2013-07-17 16:49:00,83.4,72.6,29.92,WSW,250,5.0,14.0,70,0.00,OVC,OVC,0.00,WeatherDisplay:10.37,2013-07-17 20:49:00,
2013-07-17 16:54:00,81.9,72.8,29.92,SW,232,2.0,8.0,74,0.00,OVC,OVC,0.00,WeatherDisplay:10.37,2013-07-17 20:54:00,
2013-07-17 17:04:00,80.6,73.1,29.92,SW,215,1.0,10.0,78,0.00,OVC,OVC,0.00,WeatherDisplay:10.37,2013-07-17 21:04:00,
2013-07-17 17:09:00,80.5,73.4,29.92,South,181,3.0,12.0,79,0.00,OVC,OVC,0.00,WeatherDisplay:10.37,2013-07-17 21:09:00,
2013-07-17 17:14:00,80.6,73.9,29.92,South,188,1.0,12.0,80,0.00,OVC,OVC,0.00,WeatherDisplay:10.37,2013-07-17 21:14:00,
2013-07-17 17:19:00,80.5,73.4,29.93,SSW,196,3.0,10.0,79,0.00,OVC,OVC,0.00,WeatherDisplay:10.37,2013-07-17 21:19:00,
2013-07-17 17:24:00,80.5,73.4,29.93,SW,228,3.0,7.0,79,0.00,OVC,OVC,0.00,WeatherDisplay:10.37,2013-07-17 21:24:00,
2013-07-17 17:29:00,80.6,73.1,29.93,SSW,212,1.0,7.0,78,0.00,OVC,OVC,0.00,WeatherDisplay:10.37,2013-07-17 21:29:00,
2013-07-17 17:34:00,81.5,74.0,29.93,SSW,213,0.0,4.0,78,0.00,OVC,OVC,0.00,WeatherDisplay:10.37,2013-07-17 21:34:00,
2013-07-17 17:39:00,82.0,73.7,29.94,WSW,251,1.0,7.0,76,0.00,OVC,OVC,0.00,WeatherDisplay:10.37,2013-07-17 21:39:00,
2013-07-17 17:49:00,81.9,73.2,29.93,WSW,254,1.0,6.0,75,0.00,OVC,OVC,0.00,WeatherDisplay:10.37,2013-07-17 21:49:00,
2013-07-17 17:54:00,81.8,73.5,29.92,West,276,2.0,5.0,76,0.00,OVC,OVC,0.00,WeatherDisplay:10.37,2013-07-17 21:54:00,
2013-07-17 17:59:00,81.6,73.3,29.92,West,277,3.0,13.0,76,0.00,OVC,OVC,0.00,WeatherDisplay:10.37,2013-07-17 21:59:00,
2013-07-17 18:04:00,81.2,73.3,29.91,West,265,2.0,13.0,77,0.00,OVC,OVC,0.00,WeatherDisplay:10.37,2013-07-17 22:04:00,
2013-07-17 18:09:00,80.8,72.9,29.91,WSW,243,5.0,10.0,77,0.00,OVC,OVC,0.00,WeatherDisplay:10.37,2013-07-17 22:09:00,
2013-07-17 18:14:00,80.7,73.2,29.91,WSW,247,3.0,8.0,78,0.00,BKN,OVC,0.00,WeatherDisplay:10.37,2013-07-17 22:14:00,
2013-07-17 18:19:00,81.1,73.6,29.91,West,274,1.0,5.0,78,0.00,BKN,OVC,0.00,WeatherDisplay:10.37,2013-07-17 22:19:00,
2013-07-17 18:24:00,80.9,73.4,29.91,WSW,254,3.0,8.0,78,0.00,BKN,OVC,0.00,WeatherDisplay:10.37,2013-07-17 22:24:00,
2013-07-17 18:29:00,80.7,73.2,29.90,SW,230,5.0,9.0,78,0.00,BKN,OVC,0.00,WeatherDisplay:10.37,2013-07-17 22:29:00,
2013-07-17 18:34:00,80.5,73.4,29.90,WNW,284,1.0,8.0,79,0.00,BKN,OVC,0.00,WeatherDisplay:10.37,2013-07-17 22:34:00,
2013-07-17 18:39:00,80.2,73.5,29.92,WNW,289,2.0,6.0,80,0.00,BKN,OVC,0.00,WeatherDisplay:10.37,2013-07-17 22:39:00,
2013-07-17 18:44:00,80.0,73.6,29.94,NW,307,5.0,10.0,81,0.00,BKN,OVC,0.00,WeatherDisplay:10.37,2013-07-17 22:44:00,
2013-07-17 18:49:00,79.8,73.1,29.95,NNW,337,3.0,18.0,80,0.00,BKN,OVC,0.00,WeatherDisplay:10.37,2013-07-17 22:49:00,
2013-07-17 18:54:00,79.5,70.5,29.96,NW,310,10.0,17.0,74,0.02,RA,OVC,0.02,WeatherDisplay:10.37,2013-07-17 22:54:00,
2013-07-17 18:59:00,75.8,68.8,29.95,WNW,298,10.0,20.0,79,0.05,RA,OVC,0.09,WeatherDisplay:10.37,2013-07-17 22:59:00,
2013-07-17 19:04:00,72.5,68.0,29.90,WNW,294,1.0,12.0,86,0.09,RA,OVC,0.17,WeatherDisplay:10.37,2013-07-17 23:04:00,
2013-07-17 19:09:00,71.0,67.6,29.89,SSW,208,1.0,4.0,89,0.01,RA,OVC,0.17,WeatherDisplay:10.37,2013-07-17 23:09:00,
2013-07-17 19:14:00,70.8,68.4,29.91,NW,306,1.0,7.0,92,0.00,RA,OVC,0.17,WeatherDisplay:10.37,2013-07-17 23:14:00,
2013-07-17 19:19:00,70.7,68.3,29.94,WNW,303,2.0,6.0,92,0.00,OVC,OVC,0.17,WeatherDisplay:10.37,2013-07-17 23:19:00,
2013-07-17 19:24:00,70.7,68.3,29.95,NW,319,5.0,10.0,92,0.00,OVC,OVC,0.17,WeatherDisplay:10.37,2013-07-17 23:24:00,
2013-07-17 19:29:00,70.9,67.8,29.96,NW,309,3.0,9.0,90,0.00,OVC,OVC,0.17,WeatherDisplay:10.37,2013-07-17 23:29:00,
2013-07-17 19:34:00,71.2,68.4,29.96,NW,308,1.0,6.0,91,0.00,OVC,OVC,0.17,WeatherDisplay:10.37,2013-07-17 23:34:00,
2013-07-17 19:39:00,71.1,68.3,29.95,NW,305,1.0,10.0,91,0.00,OVC,OVC,0.17,WeatherDisplay:10.37,2013-07-17 23:39:00,
2013-07-17 19:44:00,71.1,68.3,29.95,NW,316,2.0,10.0,91,0.01,RA,OVC,0.18,WeatherDisplay:10.37,2013-07-17 23:44:00,
2013-07-17 19:49:00,71.0,68.2,29.95,NNW,341,2.0,7.0,91,0.00,RA,OVC,0.18,WeatherDisplay:10.37,2013-07-17 23:49:00,
2013-07-17 19:54:00,70.9,68.5,29.93,NNW,337,1.0,6.0,92,0.00,OVC,OVC,0.18,WeatherDisplay:10.37,2013-07-17 23:54:00,
2013-07-17 19:59:00,70.9,68.5,29.93,NNW,340,0.0,3.0,92,0.00,OVC,OVC,0.18,WeatherDisplay:10.37,2013-07-17 23:59:00,
2013-07-17 20:04:00,70.7,68.6,29.93,NNW,347,0.0,1.0,93,0.00,OVC,OVC,0.18,WeatherDisplay:10.37,2013-07-18 00:04:00,
2013-07-17 20:09:00,70.6,68.8,29.92,NNW,348,0.0,1.0,94,0.00,OVC,OVC,0.18,WeatherDisplay:10.37,2013-07-18 00:09:00,
2013-07-17 20:14:00,70.5,68.7,29.92,NNW,343,0.0,2.0,94,0.00,OVC,OVC,0.18,WeatherDisplay:10.37,2013-07-18 00:14:00,
2013-07-17 20:19:00,70.5,68.7,29.93,NNW,333,0.0,0.0,94,0.00,OVC,OVC,0.18,WeatherDisplay:10.37,2013-07-18 00:19:00,
2013-07-17 20:24:00,70.6,68.8,29.93,NW,323,1.0,3.0,94,0.00,OVC,OVC,0.18,WeatherDisplay:10.37,2013-07-18 00:24:00,
2013-07-17 20:29:00,70.7,68.9,29.93,NW,321,1.0,4.0,94,0.00,OVC,OVC,0.18,WeatherDisplay:10.37,2013-07-18 00:29:00,
2013-07-17 20:34:00,70.7,68.9,29.93,NNW,327,0.0,2.0,94,0.00,OVC,OVC,0.18,WeatherDisplay:10.37,2013-07-18 00:34:00,
2013-07-17 20:39:00,70.7,69.2,29.93,North,360,0.0,1.0,95,0.00,OVC,OVC,0.18,WeatherDisplay:10.37,2013-07-18 00:39:00,
2013-07-17 20:44:00,70.6,69.1,29.93,North,352,1.0,3.0,95,0.00,OVC,OVC,0.18,WeatherDisplay:10.37,2013-07-18 00:44:00,
2013-07-17 20:49:00,70.6,68.8,29.93,NW,306,0.0,0.0,94,0.00,OVC,OVC,0.18,WeatherDisplay:10.37,2013-07-18 00:49:00,
2013-07-17 20:54:00,70.6,68.8,29.93,NW,305,0.0,0.0,94,0.00,OVC,OVC,0.18,WeatherDisplay:10.37,2013-07-18 00:54:00,
2013-07-17 20:59:00,70.5,69.0,29.94,NW,312,1.0,3.0,95,0.00,OVC,OVC,0.18,WeatherDisplay:10.37,2013-07-18 00:59:00,
2013-07-17 21:04:00,70.5,68.7,29.94,NW,321,0.0,2.0,94,0.00,OVC,OVC,0.18,WeatherDisplay:10.37,2013-07-18 01:04:00,
2013-07-17 21:09:00,70.5,69.0,29.94,WNW,295,0.0,0.0,95,0.00,OVC,OVC,0.18,WeatherDisplay:10.37,2013-07-18 01:09:00,
2013-07-17 21:14:00,70.4,68.9,29.94,WNW,289,0.0,0.0,95,0.00,BKN,OVC,0.18,WeatherDisplay:10.37,2013-07-18 01:14:00,
2013-07-17 21:19:00,70.2,68.7,29.95,WNW,289,0.0,0.0,95,0.00,BKN,OVC,0.18,WeatherDisplay:10.37,2013-07-18 01:19:00,
2013-07-17 21:24:00,70.2,68.7,29.95,WNW,289,0.0,0.0,95,0.00,BKN,OVC,0.18,WeatherDisplay:10.37,2013-07-18 01:24:00,
2013-07-17 21:29:00,70.2,69.0,29.96,WNW,289,0.0,0.0,96,0.00,BKN,OVC,0.18,WeatherDisplay:10.37,2013-07-18 01:29:00,
2013-07-17 21:34:00,70.2,69.0,29.96,WNW,289,0.0,0.0,96,0.00,BKN,OVC,0.18,WeatherDisplay:10.37,2013-07-18 01:34:00,
2013-07-17 21:39:00,70.0,68.5,29.97,WNW,289,0.0,0.0,95,0.00,BKN,OVC,0.18,WeatherDisplay:10.37,2013-07-18 01:39:00,
2013-07-17 21:44:00,69.9,68.7,29.97,WNW,289,0.0,0.0,96,0.00,BKN,OVC,0.18,WeatherDisplay:10.37,2013-07-18 01:44:00,
2013-07-17 21:49:00,69.9,68.7,29.97,WNW,289,0.0,0.0,96,0.00,BKN,OVC,0.18,WeatherDisplay:10.37,2013-07-18 01:49:00,
2013-07-17 21:54:00,69.8,68.6,29.97,WNW,289,0.0,0.0,96,0.00,BKN,OVC,0.18,WeatherDisplay:10.37,2013-07-18 01:54:00,
2013-07-17 21:59:00,69.8,68.6,29.97,WNW,289,0.0,0.0,96,0.00,BKN,OVC,0.18,WeatherDisplay:10.37,2013-07-18 01:59:00,
2013-07-17 22:09:00,69.7,68.5,29.97,WNW,289,0.0,0.0,96,0.00,BKN,OVC,0.18,WeatherDisplay:10.37,2013-07-18 02:09:00,
2013-07-17 22:14:00,69.6,68.4,29.97,WNW,289,0.0,0.0,96,0.00,BKN,OVC,0.18,WeatherDisplay:10.37,2013-07-18 02:14:00,
2013-07-17 22:19:00,69.6,68.4,29.97,WNW,289,0.0,0.0,96,0.00,BKN,OVC,0.18,WeatherDisplay:10.37,2013-07-18 02:19:00,
2013-07-17 22:24:00,69.5,68.3,29.97,WNW,289,0.0,0.0,96,0.00,BKN,OVC,0.18,WeatherDisplay:10.37,2013-07-18 02:24:00,
2013-07-17 22:29:00,69.4,68.2,29.96,WNW,289,0.0,0.0,96,0.00,BKN,OVC,0.18,WeatherDisplay:10.37,2013-07-18 02:29:00,
2013-07-17 22:34:00,69.3,68.1,29.96,WNW,289,0.0,0.0,96,0.00,BKN,OVC,0.18,WeatherDisplay:10.37,2013-07-18 02:34:00,
2013-07-17 22:39:00,69.1,67.9,29.97,WNW,289,0.0,0.0,96,0.00,BKN,OVC,0.18,WeatherDisplay:10.37,2013-07-18 02:39:00,
2013-07-17 22:44:00,69.0,67.8,29.96,WNW,289,0.0,0.0,96,0.00,BKN,OVC,0.18,WeatherDisplay:10.37,2013-07-18 02:44:00,
2013-07-17 22:49:00,68.9,67.7,29.96,WNW,289,0.0,0.0,96,0.00,BKN,OVC,0.18,WeatherDisplay:10.37,2013-07-18 02:49:00,
2013-07-17 22:54:00,68.9,68.9,29.96,WNW,289,0.0,0.0,100,0.00,BKN,OVC,0.18,WeatherDisplay:10.37,2013-07-18 02:54:00,
2013-07-17 22:59:00,68.8,67.6,29.96,WNW,291,0.0,0.0,96,0.00,BKN,OVC,0.18,WeatherDisplay:10.37,2013-07-18 02:59:00,
2013-07-17 23:09:00,68.8,67.6,29.96,NNW,328,0.0,1.0,96,0.01,RA,OVC,0.19,WeatherDisplay:10.37,2013-07-18 03:09:00,
2013-07-17 23:14:00,68.7,67.5,29.96,NW,317,0.0,0.0,96,0.00,RA,OVC,0.19,WeatherDisplay:10.37,2013-07-18 03:14:00,
2013-07-17 23:19:00,68.7,67.5,29.96,NW,316,0.0,0.0,96,0.00,BKN,OVC,0.19,WeatherDisplay:10.37,2013-07-18 03:19:00,
2013-07-17 23:24:00,68.6,67.4,29.96,NW,316,0.0,0.0,96,0.00,BKN,OVC,0.19,WeatherDisplay:10.37,2013-07-18 03:24:00,
2013-07-17 23:29:00,68.5,67.3,29.96,NW,311,0.0,1.0,96,0.00,BKN,OVC,0.19,WeatherDisplay:10.37,2013-07-18 03:29:00,
2013-07-17 23:34:00,68.4,68.1,29.96,NW,313,0.0,1.0,99,0.00,BKN,OVC,0.19,WeatherDisplay:10.37,2013-07-18 03:34:00,
2013-07-17 23:39:00,68.6,68.6,29.96,NW,323,0.0,0.0,100,0.00,BKN,OVC,0.19,WeatherDisplay:10.37,2013-07-18 03:39:00,
2013-07-17 23:44:00,68.6,67.4,29.97,NW,323,0.0,0.0,96,0.00,BKN,OVC,0.19,WeatherDisplay:10.37,2013-07-18 03:44:00,
2013-07-17 23:49:00,68.5,67.3,29.97,NW,323,0.0,0.0,96,0.00,BKN,OVC,0.19,WeatherDisplay:10.37,2013-07-18 03:49:00,
2013-07-17 23:54:00,68.4,67.2,29.97,NW,323,0.0,0.0,96,0.00,BKN,OVC,0.19,WeatherDisplay:10.37,2013-07-18 03:54:00,
2013-07-17 23:59:00,68.4,68.4,29.97,NW,323,0.0,1.0,100,0.00,RA,OVC,0.00,WeatherDisplay:10.37,2013-07-18 03:59:00,